STARLINK-1964, 47565

Orbit data source: Space-Track

STARLINK-1964, 47565 is a payload satellite owned by SpaceX/Seattle (US) in LEO that was launched on Thu, 04 Feb 2021 UTC via an FALCON 9 launch vehicle from the Air Force Eastern Test Range (AFETR). Payload-class satellites include a variety of spacecraft equipped with specific instruments for various scientific and technological missions. These include communications satellites like Starlink; space stations such as the ISS; scientific satellites like the Hubble; Earth observation satellites from companies like Planet Labs, Umbra, and HawkEye 360; GPS; miniature CubeSats for education and research; and military/defense satellites.

Not visible in the next 10 days
Identifier
47565, 2021-009T
Orbit
LEO
Country
Flag of USUS
Related business
Manufacturer
SpaceX/Seattle
Mission
Partially operational Commercial Communications
Bus & Motor
STARLINK, Unknown motor
Mass
260 kg wet, ~248 kg dry
Launch date (UTC)
2021-02-04 (5 years ago)
Launch vehicle
FALCON 9
Launch site
Air Force Eastern Test Range (AFETR)
Object type
Payload
Rocket body
Debris
Shape & HBR
Box + 1 Pan, 10.1 m
Radar Cross Section
13.562 m², Large (>1 m²)

Expand to show TLE details & history
Last TLE update: 2 days ago

TLE from 2 days ago
0 STARLINK-1964
1 47565U 21009T   26171.43188470  .00701265  26513-3  83155-3 0  9997
2 47565  53.0299 172.7814 0002147  24.7046 335.4089 16.07944753297785
Epoch: 2026-06-20T10:21Z
TLE epoch observation values (Epoch: 2026-06-20T10:21:54.838Z)
Latitude
-0.00001°
Longitude
108.65631°
Altitude
252.108 km
Speed
7.758 km/s
True Right ascension
11h 31m 07s
True Declination
0° 00' 00"
Sunlit
Object was in daylight at epoch
Visualization orbit readout
Latitude
Unknown
Longitude
Unknown
Altitude
Unknown
Speed
Unknown
Apparent Right ascension
Unknown
Apparent Declination
Unknown
Sunlit
N/A
Visualization observer readout
Local Sidereal Time
21:36:49
Azimuth
Unknown
Elevation
Unknown
Doppler factor
Unknown
Orbital elements
Apogee altitude
254.198 km
Perigee altitude
251.35 km
Semi-major axis
6,630.911 km
Eccentricity
0.00021
Inclination
53.0299°
RAAN
172.7814°
Arg. of periapsis
24.7046°
True anomaly
335.39866°
Mean anomaly
335.4089°
Eccentric anomaly
335.40378°
Mean motion
4.01961 °/min
Orbital period
89.56 mins
BSTAR
0.00083155
Loading maneuver chart data...
Computing Atmospheric mass density...

Documentation

Showing up to 5 results
|